Location: Brienzwiler
(46.7508°N, 8.1014°E)
Time: 17:13:28
(UTC+00:00)

Thor Agena Rocket - Pass Details

Date: 05 July 2020
Orbit: 759 x 808 km, 99.0° (Epoch: 10 August)

Event Time Altitude Azimuth Distance (km) Brightness Sun altitude
Rises 22:23:28 0° 14° (NNE) 3,268 7.8 -18.9°
Reaches altitude 10° 22:25:48 10° 14° (NNE) 2,329 6.9 -19.0°
Maximum altitude 22:30:56 88° 288° (WNW) 774 3.4 -19.2°
Enters shadow 22:33:19 33° 198° (SSW) 1,275 4.2 -19.3°
